This demonstration page uses our WeatherBlox Daily Observations layout. Learn more.

39.92423, -83.80882

Hourly Observations for December 16, 2019

Temp ( °F °C ) Dew Point ( °F °C ) Humidity (%) Winds ( mph kmh ) Pressure ( in mb ) Visibility ( mi km ) Precip ( " mm )
12:05 am 00:05 Cloudy with Light Snow 28 -2 28 -2 100 100 E 9 15 30.12 1020 1 1.60934 0.001 0.001
12:14 am 00:14 Cloudy with Snow 28 -2 28 -2 100 100 E 8 13 30.12 1020 0.5 0.80467 0.001 0.001
12:22 am 00:22 Cloudy with Light Snow 28 -2 28 -2 100 100 E 9 15 30.11 1020 0.75 1.207005 0.001 0.001
12:27 am 00:27 Cloudy with Light Snow 28 -2 28 -2 100 100 E 8 13 30.11 1020 1.25 2.011675 0.001 0.001
12:56 am 00:56 Cloudy with Light Snow 30 -1.1 30 -1.1 100 100 E 10 17 30.08 1019 2 3.21868 0.001 0.001
1:05 am 01:05 Cloudy with Light Snow 30 -1 30 -1 100 100 E 9 15 30.1 1019 1.5 2.41401 0.001 0.001
1:39 am 01:39 Cloudy with Light Snow 30 -1 30 -1 100 100 E 9 15 30.09 1019 2 3.21868 0.001 0.001
1:49 am 01:49 Cloudy with Light Snow 30 -1 30 -1 100 100 E 9 15 30.1 1019 1.5 2.41401 0.001 0.001
1:56 am 01:56 Cloudy with Light Snow 30 -1.1 30 -1.1 100 100 E 10 17 30.07 1018 1.75 2.816345 0.001 0.001
2:00 am 02:00 Cloudy with Light Snow 30 -1 30 -1 100 100 E 8 13 30.1 1019 2 3.21868 0.001 0.001
2:45 am 02:45 Cloudy with Light Snow 30 -1 30 -1 100 100 E 9 15 30.1 1019 3 4.82802 0.001 0.001
2:56 am 02:56 Cloudy with Light Snow 30 -1.1 30 -1.1 100 100 ENE 10 17 30.07 1018 3 4.82802 0.001 0.001
3:56 am 03:56 Cloudy with Mist and Fog 30 -1.1 30 -1.1 100 100 ENE 12 19 30.08 1019 6 9.65604 0.001 0.001
4:56 am 04:56 Cloudy with Mist and Fog 30 -1.1 30 -1.1 100 100 ENE 10 17 30.08 1019 4 6.43736 0.001 0.001
5:56 am 05:56 Cloudy with Mist and Fog 30 -1.1 30 -1.1 100 100 NE 12 19 30.1 1019 5 8.0467 0 0
6:56 am 06:56 Cloudy with Mist and Fog 30 -1.1 30 -1.1 100 100 NE 10 17 30.11 1020 5 8.0467 0 0
7:56 am 07:56 Cloudy with Mist and Fog 30 -1.1 30 -1.1 100 100 ENE 9 15 30.12 1020 6 9.65604 0.01 0.254
8:25 am 08:25 Cloudy 30 -1 30 -1 100 100 ENE 12 19 30.15 1021 7 11.26538 0 0
8:56 am 08:56 Cloudy 30 -1.1 29 -1.7 96 96 NE 12 19 30.14 1021 7 11.26538 0.01 0.254
9:56 am 09:56 Cloudy 31 -0.6 30 -1.1 96 96 NE 13 20 30.15 1021 10 16.0934 0.01 0.254
10:56 am 10:56 Cloudy 32 0 30 -1.1 92 92 ENE 12 19 30.16 1021 10 16.0934 0.02 0.508
11:56 am 11:56 Cloudy 32 0 30 -1.1 92 92 ENE 13 20 30.13 1020 9 14.48406 0.02 0.508
12:56 pm 12:56 Cloudy 32 0 30 -1.1 92 92 NE 13 20 30.1 1019 8 12.87472 0 0
1:56 pm 13:56 Cloudy 32 0 29 -1.7 88 88 NE 13 20 30.09 1019 7 11.26538 0.02 0.508
2:56 pm 14:56 Cloudy 32 0 30 -1.1 92 92 E 13 20 30.04 1017 8 12.87472 0 0
3:56 pm 15:56 Cloudy with Light Snow 32 0 30 -1.1 92 92 ENE 13 20 30.04 1017 8 12.87472 0.001 0.001
4:14 pm 16:14 Cloudy with Light Wintry Mix 32 0 30 -1 93 93 ENE 14 22 30.05 1018 6 9.65604 0.001 0.001
4:24 pm 16:24 Cloudy with Light Freezing Rain 32 0 30 -1 93 93 ENE 13 20 30.06 1018 7 11.26538 0.001 0.001
4:44 pm 16:44 Cloudy with Light Snow 32 0 30 -1 93 93 NE 12 19 30.04 1017 4 6.43736 0.01 0.254
4:49 pm 16:49 Cloudy with Light Snow 32 0 30 -1 93 93 NE 13 20 30.05 1018 2.5 4.02335 0.01 0.254
4:56 pm 16:56 Cloudy with Light Snow 32 0 31 -0.6 96 96 NE 13 20 30.04 1017 2.5 4.02335 0.01 0.254
5:02 pm 17:02 Cloudy with Light Freezing Rain 32 0 30 -1 93 93 NE 15 24 30.04 1017 3 4.82802 0.001 0.001
5:09 pm 17:09 Cloudy with Light Snow 32 0 30 -1 93 93 NE 16 26 30.04 1017 1.75 2.816345 0.01 0.254
5:21 pm 17:21 Cloudy with Light Snow 32 0 30 -1 93 93 NE 14 22 30.05 1018 3 4.82802 0.01 0.254
5:34 pm 17:34 Cloudy with Light Snow 30 -1 30 -1 100 100 NE 14 22 30.05 1018 4 6.43736 0.01 0.254
5:56 pm 17:56 Cloudy with Light Snow 32 0 31 -0.6 96 96 NE 12 19 30.03 1017 3 4.82802 0.01 0.254
6:41 pm 18:41 Cloudy with Mist and Fog 32 0 30 -1 93 93 NE 13 20 30.06 1018 5 8.0467 0.001 0.001
6:56 pm 18:56 Cloudy with Light Snow 32 0 31 -0.6 96 96 NE 14 22 30.05 1018 4 6.43736 0.001 0.001
7:08 pm 19:08 Cloudy with Light Snow 32 0 30 -1 93 93 ENE 14 22 30.04 1017 3 4.82802 0.01 0.254
7:56 pm 19:56 Cloudy with Mist and Fog 32 0 31 -0.6 96 96 NNE 13 20 30.02 1017 6 9.65604 0.01 0.254
8:56 pm 20:56 Cloudy with Light Wintry Mix 32 0 31 -0.6 96 96 NE 16 26 30 1016 6 9.65604 0.001 0.001
9:56 pm 21:56 Cloudy with Light Snow 32 0 31 -0.6 96 96 ENE 16 26 29.94 1014 4 6.43736 0.001 0.001
10:26 pm 22:26 Cloudy with Mist and Fog 32 0 30 -1 93 93 NE 15 24 29.95 1014 5 8.0467 0 0
10:56 pm 22:56 Cloudy with Mist and Fog 32 0 31 -0.6 96 96 NNE 14 22 29.93 1014 5 8.0467 0.01 0.254
11:56 pm 23:56 Cloudy with Light Snow 32 0 31 -0.6 96 96 NNE 13 20 29.93 1013 4 6.43736 0.001 0.001

Powered by AerisWeather